ChubuSat-3
1 41339U 16012C 19045.84652567 .00000270 00000-0 14211-4 0 9994
2 41339 31.0096 210.0484 0013720 323.8101 36.1619 15.00273482164291
Horyu-4
1 41340U 16012D 19045.76649979 .00000442 00000-0 26935-4 0 9997
2 41340 31.0039 203.1284 0014177 338.7724 21.2323 15.01169729164379
OUFTI-1
1 41458U 16025C 19045.77423482 .00000997 00000-0 54803-4 0 9991
2 41458 98.1084 126.3316 0168914 53.7560 307.9178 15.05407777153930
e-st@r-II
1 41459U 16025D 19045.76255622 .00001727 00000-0 92242-4 0 9991
2 41459 98.1095 126.0504 0169804 54.9797 306.7241 15.05087162153900
AAUSAT4
1 41460U 16025E 19045.68661477 .00001819 00000-0 95299-4 0 9990
2 41460 98.1057 126.9238 0160397 49.0454 312.4476 15.06808727153998
LO-87
1 41557U 16033B 19045.86823722 .00001150 00000-0 46254-4 0 9994
2 41557 97.4232 134.1038 0014437 22.0067 338.1789 15.26873815151199
NuSat2
1 41558U 16033C 19045.86019728 .00001255 00000-0 47507-4 0 9996
2 41558 97.4253 134.7457 0013562 24.5361 335.6521 15.28769063151216
Lapan A3
1 41603U 16040E 19045.79964933 -.00000012 00000-0 25773-5 0 9997
2 41603 97.3789 107.4483 0014982 109.1785 27.6825 15.19665399146927
Swayam
1 41607U 16040J 19045.62875598 .00001388 00000-0 61981-4 0 9997
2 41607 97.3826 109.9096 0015235 106.2498 254.0416 15.22919065146996
Pratham
1 41783U 16059A 19045.39546771 .00000042 00000-0 17305-4 0 9991
2 41783 98.0856 107.6138 0034616 56.3002 304.1492 14.62972620127375
AlSat 1N
1 41789U 16059G 19045.69485864 .00000054 00000-0 19358-4 0 9998
2 41789 98.0874 109.6351 0029362 46.1060 314.2562 14.64215919127501
ScatSat
1 41790U 16059H 19045.24022065 -.00000001 00000-0 10760-4 0 9992
2 41790 98.2279 93.2016 0019466 70.1139 290.2151 14.50889668126282
TY-1
1 41844U 16066D 19045.74560892 .00001354 00000-0 58836-4 0 9997
2 41844 97.4067 54.5977 0013445 264.2628 181.7118 15.23951009125819
Pegasus-1
1 41846U 16066F 19045.77527721 .00000179 00000-0 38560-4 0 9992
2 41846 98.7288 83.8996 0366878 246.5714 109.6504 14.37492570118756
CAS-2T
1 41847U 16066G 19045.19545259 .00000013 00000-0 13369-4 0 9992
2 41847 98.7239 83.8266 0365089 245.1629 111.1184 14.37957464119106
EO-88
1 42017U 17008BX 19045.18558729 .00001366 00000-0 57387-4 0 9994
2 42017 97.4189 113.4960 0004852 240.1126 119.9630 15.25140109110945
HAVELSAT
1 42700U 98067LH 19045.77879295 .00484684 12538-3 58681-3 0 9993
2 42700 51.6180 173.9422 0005711 335.2490 24.8248 16.07546267100423
SOMP2
1 42701U 98067LJ 19045.78547547 .00199322 26947-4 46612-3 0 9990
2 42701 51.6296 180.2325 0002836 336.3823 23.7055 15.96570015100331
PHOENIX
1 42706U 98067LP 19045.79406547 .00076351 00000-0 32452-3 0 9991
2 42706 51.6254 187.8805 0001533 342.0049 18.0899 15.84590866100159
qbee
1 42708U 98067LR 19045.80773823 .00526684 14883-3 61039-3 0 9998
2 42708 51.6166 174.9100 0006596 333.4253 26.6421 16.08214508100275
ZA-AeroSat
1 42713U 98067LU 19045.80232386 .00070684 00000-0 32765-3 0 9999
2 42713 51.6315 193.2747 0001773 351.8064 8.2909 15.82786989 99748
SpaceCube
1 42717U 98067LY 19045.81271197 .00450985 10772-3 58263-3 0 9994
2 42717 51.6117 175.5737 0005849 333.6405 26.4309 16.06520078 99343
NJUST-1
1 42722U 98067MB 19045.82861087 .00043962 00000-0 23876-3 0 9999
2 42722 51.6383 197.7273 0003080 60.9983 84.3250 15.79541030 98753
LO-90
1 42725U 98067ME 19045.61835554 .00132927 17888-4 37399-3 0 9990
2 42725 51.6316 185.7877 0001832 346.2793 78.9019 15.93297532 98800
nSIGHT1
1 42726U 98067MF 19045.69436374 .00020540 00000-0 19761-3 0 9990
2 42726 51.6366 220.6651 0004814 66.7809 293.3693 15.66522446 98356
SNUSAT 1B
1 42727U 98067MG 19045.84060976 .00147892 19371-4 43248-3 0 9991
2 42727 51.6253 185.0599 0003282 355.8166 4.2813 15.92505325 98790
QBITO
1 42728U 98067MH 19045.85279069 .02113902 12020-4 66689-3 0 9993
2 42728 51.6191 172.7444 0008165 334.7453 166.1258 16.25582169 98793
SUSat
1 42730U 98067MK 19045.77061425 .00191765 25557-4 47496-3 0 9997
2 42730 51.6272 182.3786 0003060 329.8003 30.2828 15.95527923 98660
Aoxiang-1
1 42735U 98067MQ 19045.82438946 .00051081 00000-0 26128-3 0 9991
2 42735 51.6301 196.0972 0003230 74.1274 71.2341 15.80789962 99906
BeEagleSat
1 42736U 98067MR 19045.82569760 .00093825 00000-0 35221-3 0 9997
2 42736 51.6282 188.8126 0002142 47.8586 312.2600 15.87077715 98693
CAS-4B
1 42759U 17034B 19045.74357447 .00000180 00000-0 24562-4 0 9994
2 42759 43.0172 191.4800 0010420 196.4845 297.8347 15.09484498 92107
CAS-4A
1 42761U 17034D 19045.78000993 .00000054 00000-0 16828-4 0 9998
2 42761 43.0184 190.9002 0011026 198.1262 300.6474 15.09559970 92108
UCLSat
1 42765U 17036A 19045.85204527 .00001198 00000-0 54785-4 0 9995
2 42765 97.3691 106.4162 0010226 310.4571 49.5773 15.22426536 91622
NIUSat
1 42766U 17036B 19044.70190496 .00000840 00000-0 41072-4 0 9996
2 42766 97.3692 104.0151 0014309 301.7057 58.2783 15.20851470 91236
LituanicaSAT 2
1 42768U 17036D 19045.62954887 .00001877 00000-0 84379-4 0 9990
2 42768 97.3720 105.7559 0013795 298.6348 61.3500 15.22281949 91439
Aalto 1
1 42775U 17036L 19044.74910119 .00000703 00000-0 34613-4 0 9993
2 42775 97.3682 104.3592 0012627 302.2173 57.7838 15.21121931 91219
URSA MAIOR
1 42776U 17036M 19044.72005666 .00000769 00000-0 37475-4 0 9995
2 42776 97.3690 104.4404 0012447 302.2840 57.7189 15.21239510 91215
Max Valier Sat
1 42778U 17036P 19045.78705086 .00000836 00000-0 39874-4 0 9997
2 42778 97.3721 106.0856 0010967 303.2003 56.8181 15.21766006 91394
Pegasus
1 42784U 17036V 19045.72518723 .00001074 00000-0 49722-4 0 9996
2 42784 97.3695 106.1519 0010794 310.9790 49.0512 15.22196458 91407
NUDATSat
1 42787U 17036Y 19045.20405986 .00001397 00000-0 62309-4 0 9992
2 42787 97.3710 106.1274 0010424 313.5106 46.5265 15.23012888 91194
SUCHAI 1
1 42788U 17036Z 19044.90940628 .00001168 00000-0 53303-4 0 9996
2 42788 097.3700 105.5719 0010416 313.7336 046.3038 15.22554244091360
SKCUBE
1 42789U 17036AA 19044.91796815 .00001097 00000-0 50337-4 0 9990
2 42789 097.3697 105.5457 0010282 313.8418 046.1968 15.22477661091286
VZLUSAT 1
1 42790U 17036AB 19044.92841102 .00001435 00000-0 63914-4 0 9994
2 42790 097.3707 105.8617 0009849 313.4409 046.6007 15.23020900091307
VENTA 1
1 42791U 17036AC 19044.89380106 .00001076 00000-0 49390-4 0 9996
2 42791 097.3695 105.5718 0009943 314.8252 045.2176 15.22502765091270
Robusta 1B
1 42792U 17036AD 19045.58507031 .00001217 00000-0 55259-4 0 9990
2 42792 97.3695 106.3163 0009831 312.3842 47.6562 15.22640809 91400
D-SAT
1 42794U 17036AF 19045.38912180 .00000079 00000-0 12390-4 0 9999
2 42794 97.5587 95.4404 0126421 195.2082 164.5323 14.91019536 89817
BIRD-J
1 42820U 98067MU 19045.44498964 .00084765 00000-0 34438-3 0 9998
2 42820 51.6282 195.3282 0002066 334.0051 26.0849 15.85490787 92039
BIRD-G
1 42821U 98067MV 19045.79555264 .00077289 00000-0 35330-3 0 9999
2 42821 51.6247 196.1589 0001968 336.0074 24.0837 15.83049176 92032
